TimeEST,TemperatureF,Dew PointF,Humidity,Sea Level PressureIn,VisibilityMPH,Wind Direction,Wind SpeedMPH,Gust SpeedMPH,PrecipitationIn,Events,Conditions,WindDirDegrees,DateUTC
12:35 AM,25.5,24.6,96,29.92,7.0,Calm,Calm,-,N/A,,Unknown,0,2013-01-07 05:35:00
12:55 AM,25.3,24.4,96,29.93,7.0,Calm,Calm,-,N/A,,Unknown,0,2013-01-07 05:55:00
1:35 AM,25.2,24.1,96,29.94,7.0,Calm,Calm,-,N/A,,Unknown,0,2013-01-07 06:35:00
1:55 AM,25.7,24.8,96,29.95,7.0,Calm,Calm,-,N/A,,Unknown,0,2013-01-07 06:55:00
2:15 AM,25.5,24.4,96,29.96,7.0,Calm,Calm,-,N/A,,Unknown,0,2013-01-07 07:15:00
2:35 AM,25.7,24.6,96,29.96,7.0,Calm,Calm,-,N/A,,Unknown,0,2013-01-07 07:35:00
3:15 AM,26.2,25.2,96,29.97,4.0,Calm,Calm,-,N/A,Snow,Light Snow,0,2013-01-07 08:15:00
3:35 AM,26.4,25.3,96,29.98,5.0,Calm,Calm,-,N/A,Snow,Light Snow,0,2013-01-07 08:35:00
3:55 AM,28.0,27.1,96,29.99,5.0,WNW,5.8,-,N/A,Snow,Light Snow,290,2013-01-07 08:55:00
4:15 AM,32.7,29.1,87,29.99,10.0,West,6.9,-,N/A,,Unknown,280,2013-01-07 09:15:00
4:35 AM,32.9,27.9,82,30.00,10.0,West,11.5,18.4,N/A,,Unknown,270,2013-01-07 09:35:00
4:55 AM,32.5,27.9,83,30.02,10.0,West,9.2,17.3,N/A,Snow,Light Snow,280,2013-01-07 09:55:00
5:15 AM,32.2,25.3,76,30.04,10.0,West,11.5,19.6,N/A,,Unknown,280,2013-01-07 10:15:00
5:55 AM,30.9,23.9,75,30.07,10.0,West,11.5,18.4,N/A,,Unknown,270,2013-01-07 10:55:00
6:15 AM,30.2,22.6,73,30.09,10.0,West,12.7,19.6,N/A,,Unknown,280,2013-01-07 11:15:00
6:35 AM,29.1,21.4,73,30.10,10.0,WNW,8.1,17.3,N/A,,Unknown,290,2013-01-07 11:35:00
6:55 AM,28.0,20.3,73,30.13,10.0,West,10.4,17.3,N/A,,Unknown,280,2013-01-07 11:55:00
7:15 AM,27.0,19.4,73,30.15,10.0,West,12.7,20.7,N/A,,Unknown,280,2013-01-07 12:15:00
7:35 AM,26.1,18.5,73,30.17,10.0,WNW,9.2,-,N/A,,Unknown,290,2013-01-07 12:35:00
7:55 AM,25.5,17.6,72,30.19,10.0,West,10.4,-,N/A,,Unknown,270,2013-01-07 12:55:00
8:15 AM,24.6,16.7,72,30.20,10.0,West,11.5,20.7,N/A,,Unknown,280,2013-01-07 13:15:00
8:35 AM,23.9,15.8,71,30.21,10.0,West,15.0,23.0,N/A,,Unknown,270,2013-01-07 13:35:00
8:55 AM,23.7,15.6,71,30.24,10.0,West,13.8,20.7,N/A,,Unknown,280,2013-01-07 13:55:00
9:15 AM,23.4,15.3,71,30.26,10.0,WNW,13.8,20.7,N/A,Snow,Light Snow,290,2013-01-07 14:15:00
9:35 AM,23.0,14.9,71,30.27,10.0,WNW,10.4,16.1,N/A,,Unknown,300,2013-01-07 14:35:00
9:55 AM,23.5,14.9,70,30.28,10.0,West,6.9,16.1,N/A,,Unknown,280,2013-01-07 14:55:00
10:15 AM,24.8,14.5,65,30.29,10.0,West,6.9,-,N/A,,Unknown,280,2013-01-07 15:15:00
10:35 AM,24.8,13.8,63,30.29,10.0,West,10.4,21.9,N/A,,Unknown,270,2013-01-07 15:35:00
10:55 AM,24.6,12.9,61,30.29,10.0,West,16.1,20.7,N/A,,Unknown,270,2013-01-07 15:55:00
11:15 AM,24.6,12.6,60,30.29,10.0,West,11.5,18.4,N/A,,Unknown,280,2013-01-07 16:15:00
11:35 AM,24.6,12.0,59,30.29,10.0,West,13.8,20.7,N/A,,Unknown,270,2013-01-07 16:35:00
11:55 AM,25.2,11.8,57,30.29,10.0,WNW,10.4,17.3,N/A,,Unknown,290,2013-01-07 16:55:00
12:35 PM,25.7,11.3,55,30.30,10.0,West,12.7,18.4,N/A,,Unknown,270,2013-01-07 17:35:00
12:55 PM,25.7,10.8,53,30.30,10.0,WNW,12.7,17.3,N/A,,Unknown,300,2013-01-07 17:55:00
1:15 PM,26.2,10.9,52,30.29,10.0,West,8.1,16.1,N/A,,Unknown,280,2013-01-07 18:15:00
1:55 PM,26.8,10.2,50,30.30,10.0,West,10.4,17.3,N/A,,Unknown,260,2013-01-07 18:55:00
2:15 PM,27.0,10.6,50,30.32,10.0,West,6.9,-,N/A,,Unknown,270,2013-01-07 19:15:00
2:55 PM,27.5,10.8,49,30.32,10.0,West,3.5,-,N/A,,Unknown,280,2013-01-07 19:55:00
3:15 PM,27.5,10.8,49,30.32,10.0,West,4.6,-,N/A,,Unknown,270,2013-01-07 20:15:00
3:35 PM,26.2,10.2,51,30.33,10.0,West,6.9,-,N/A,,Unknown,260,2013-01-07 20:35:00
3:55 PM,25.7,9.9,51,30.34,10.0,West,4.6,-,N/A,,Unknown,270,2013-01-07 20:55:00
4:15 PM,24.6,10.4,55,30.34,10.0,Calm,Calm,-,N/A,,Unknown,0,2013-01-07 21:15:00
4:55 PM,19.9,10.6,67,30.34,10.0,Calm,Calm,-,N/A,,Unknown,0,2013-01-07 21:55:00
5:15 PM,19.4,11.7,72,30.34,10.0,Calm,Calm,-,N/A,,Unknown,0,2013-01-07 22:15:00
5:55 PM,17.6,10.4,73,30.35,10.0,Calm,Calm,-,N/A,,Unknown,0,2013-01-07 22:55:00
6:15 PM,15.8,11.1,82,30.36,10.0,Calm,Calm,-,N/A,,Unknown,0,2013-01-07 23:15:00
6:35 PM,14.4,9.9,82,30.35,10.0,Calm,Calm,-,N/A,,Unknown,0,2013-01-07 23:35:00
6:55 PM,14.0,10.6,86,30.35,10.0,Calm,Calm,-,N/A,,Unknown,0,2013-01-07 23:55:00
7:15 PM,13.6,10.6,88,30.34,10.0,Calm,Calm,-,N/A,,Unknown,0,2013-01-08 00:15:00
7:35 PM,10.4,8.2,91,30.34,10.0,Calm,Calm,-,N/A,,Unknown,0,2013-01-08 00:35:00
7:55 PM,10.2,8.2,92,30.34,10.0,Calm,Calm,-,N/A,,Unknown,0,2013-01-08 00:55:00
8:15 PM,8.6,6.6,92,30.34,10.0,Calm,Calm,-,N/A,,Unknown,0,2013-01-08 01:15:00
8:35 PM,8.4,6.6,92,30.34,10.0,Calm,Calm,-,N/A,,Unknown,0,2013-01-08 01:35:00
8:55 PM,8.1,6.6,94,30.34,10.0,Calm,Calm,-,N/A,,Unknown,0,2013-01-08 01:55:00
9:15 PM,7.2,5.4,92,30.34,10.0,Calm,Calm,-,N/A,,Unknown,0,2013-01-08 02:15:00
9:35 PM,5.9,3.9,92,30.34,10.0,Calm,Calm,-,N/A,,Unknown,0,2013-01-08 02:35:00
9:55 PM,5.0,2.3,89,30.34,10.0,Calm,Calm,-,N/A,,Unknown,0,2013-01-08 02:55:00
10:15 PM,4.5,1.9,89,30.35,10.0,Calm,Calm,-,N/A,,Unknown,0,2013-01-08 03:15:00
10:35 PM,4.1,1.8,90,30.35,10.0,Calm,Calm,-,N/A,,Unknown,0,2013-01-08 03:35:00
10:55 PM,3.6,1.2,90,30.34,10.0,Calm,Calm,-,N/A,,Unknown,0,2013-01-08 03:55:00
11:15 PM,3.0,0.5,89,30.34,10.0,Calm,Calm,-,N/A,,Unknown,0,2013-01-08 04:15:00
11:35 PM,2.8,0.1,88,30.33,10.0,Calm,Calm,-,N/A,,Unknown,0,2013-01-08 04:35:00
11:55 PM,2.3,-0.8,87,30.33,10.0,Calm,Calm,-,N/A,,Unknown,0,2013-01-08 04:55:00